Terminal Aerodrome Forecast
Issued by NWS

Home | Current Version | Previous Version | Text Only | Print | Product List | Glossary On
Versions: 1 2 3 4 5 6 7 8 9 10 11 12 13 14 15 16 17 18 19 20 21 22 23 24 25 26 27 28 29 30 31 32 33 34 35 36 37
000
FTUS43 KLOT 042205 AAC
TAFORD
TAF AMD
KORD 042205Z 0422/0524 06010KT P6SM FEW045 SCT100 BKN150
     FM050500 06007KT 6SM -SHRA VCTS SCT030 BKN050 BKN100CB
     FM050900 06007KT 4SM -SHRA VCTS BKN025 OVC050CB
     FM051100 06011KT 3SM -SHRA BR OVC010
     FM051800 06011KT P6SM SCT015 BKN050=

USA.gov is the U.S. government's official web portal to all federal, state and local government web resources and services.